Change the Weather History Date:

Tuesday, March 19, 2013

  Actual Average Record
Temperature  
Mean Temperature 70 °F -  
Max Temperature 79 °F 73 °F 87 °F (1954)
Min Temperature 60 °F 53 °F 32 °F (1988)
Cooling Degree Days 4    
Growing Degree Days 20 (Base 50)    
Moisture  
Dew Point 62 °F    
Average Humidity 75    
Maximum Humidity 87    
Minimum Humidity 61    
Precipitation  
Precipitation 0.00 in - - ()
Sea Level Pressure  
Sea Level Pressure 29.92 in    
Wind  
Wind Speed 12 mph (East)    
Max Wind Speed 22 mph    
Max Gust Speed 26 mph    
Visibility 9 miles    
Events      
Averages and records for this station are not official NWS values.
T = Trace of Precipitation, MM = Missing Value Source: NWS Daily Summary

Daily Weather History Graph

Daily Weather History Graph

Search for Another Location

Airport or City:

Trip Planner

Search our weather history database for the weather conditions in past years. The results will help you decide how hot, cold, wet, or windy it might be!

Date:

Astronomy

Mar. 19, 2013 Rise Set
Actual Time 7:29 AM CDT 7:35 PM CDT
Civil Twilight 7:06 AM CDT 7:59 PM CDT
Nautical Twilight 6:38 AM CDT 8:27 PM CDT
Astronomical Twilight 6:11 AM CDT 8:54 PM CDT
Moon 12:46 PM CDT (3/19) 1:57 AM CDT (3/19)
Length of Visible Light 12h 53m
Length of Day
12h 06m
Waxing Crescent, 50% of the Moon is Illuminated
Mar 19
Waxing Crescent
Mar 19
First Quarter
Mar 27
Full
Apr 2
Last Quarter
Apr 10
New

Hourly Weather History & Observations

Time (CDT) Temp. Dew Point Humidity Pressure Visibility Wind Dir Wind Speed Gust Speed Precip Events Conditions
12:53 AM 66.0 °F 62.1 °F 87% 29.88 in 7.0 mi North 5.8 mph - N/A   Clear
1:53 AM 66.0 °F 59.0 °F 78% 29.89 in 10.0 mi North 8.1 mph - N/A   Clear
2:53 AM 64.9 °F 55.9 °F 73% 29.89 in 10.0 mi NNE 10.4 mph - N/A   Clear
3:53 AM 63.0 °F 55.0 °F 75% 29.88 in 10.0 mi North 10.4 mph - N/A   Clear
4:53 AM 61.0 °F 54.0 °F 78% 29.89 in 10.0 mi NE 4.6 mph - N/A   Clear
5:53 AM 60.1 °F 54.0 °F 80% 29.90 in 10.0 mi NE 5.8 mph - N/A   Clear
6:53 AM 60.1 °F 55.9 °F 86% 29.91 in 7.0 mi ENE 6.9 mph - N/A   Clear
7:34 AM 68.0 °F 62.6 °F 83% 29.92 in 7.0 mi East 16.1 mph - N/A   Mostly Cloudy
7:53 AM 68.0 °F 63.0 °F 84% 29.93 in 6.0 mi East 17.3 mph - N/A   Haze
8:14 AM 68.0 °F 62.6 °F 83% 29.94 in 7.0 mi East 15.0 mph 23.0 mph N/A   Mostly Cloudy
8:53 AM 69.1 °F 62.1 °F 78% 29.95 in 9.0 mi East 18.4 mph 26.5 mph N/A   Overcast
9:53 AM 71.1 °F 59.0 °F 66% 29.98 in 10.0 mi East 21.9 mph 26.5 mph N/A   Overcast
10:03 AM 71.6 °F 60.8 °F 69% 29.98 in 10.0 mi East 19.6 mph - N/A   Overcast
10:53 AM 72.0 °F 60.1 °F 66% 29.99 in 10.0 mi ESE 19.6 mph 25.3 mph N/A   Overcast
11:53 AM 73.9 °F 62.1 °F 66% 29.98 in 10.0 mi ESE 20.7 mph - N/A   Overcast
12:53 PM 75.9 °F 64.0 °F 67% 29.97 in 10.0 mi SE 16.1 mph 24.2 mph N/A   Overcast
1:30 PM 78.8 °F 64.4 °F 61% 29.95 in 10.0 mi SE 15.0 mph - N/A   Scattered Clouds
1:53 PM 79.0 °F 64.9 °F 62% 29.94 in 10.0 mi SE 16.1 mph - N/A   Clear
2:53 PM 79.0 °F 64.9 °F 62% 29.91 in 10.0 mi SSE 12.7 mph - N/A   Partly Cloudy
3:53 PM 78.1 °F 64.9 °F 64% 29.88 in 10.0 mi SE 13.8 mph 19.6 mph N/A   Mostly Cloudy
4:43 PM 77.0 °F 66.2 °F 69% 29.88 in 9.0 mi SE 15.0 mph - N/A   Mostly Cloudy
4:53 PM 75.9 °F 64.9 °F 69% 29.89 in 9.0 mi SE 11.5 mph - N/A   Mostly Cloudy
5:53 PM 73.9 °F 64.9 °F 73% 29.87 in 8.0 mi ESE 12.7 mph - N/A   Overcast
6:53 PM 73.0 °F 64.9 °F 76% 29.87 in 7.0 mi East 13.8 mph - N/A   Overcast
7:53 PM 72.0 °F 64.9 °F 78% 29.86 in 7.0 mi East 13.8 mph - N/A   Overcast
8:53 PM 70.0 °F 64.9 °F 84% 29.88 in 7.0 mi East 12.7 mph - N/A   Mostly Cloudy
9:44 PM 71.6 °F 64.4 °F 78% 29.90 in 7.0 mi East 17.3 mph - N/A   Overcast
9:53 PM 70.0 °F 64.9 °F 84% 29.90 in 7.0 mi East 15.0 mph - N/A   Overcast
10:53 PM 70.0 °F 64.0 °F 81% 29.92 in 7.0 mi ENE 17.3 mph 21.9 mph N/A   Overcast
11:53 PM 69.1 °F 64.0 °F 84% 29.94 in 7.0 mi ENE 11.5 mph - N/A   Overcast